Regional Weather Roundup
Issued by NWS Boston, MA

Home | Current Version | Previous Version | Text Only | Print | Product List | Glossary On
Versions: 1 2 3 4 5 6 7 8 9 10 11 12 13 14 15 16 17 18 19 20 21 22 23 24 25 26 27 28 29 30 31 32 33 34 35 36 37 38 39 40 41 42 43 44 45 46 47 48 49 50
369
ASUS41 KBOX 032110
RWRBOX

REGIONAL WEATHER ROUNDUP
NATIONAL WEATHER SERVICE TAUNTON MA
400 PM EST SAT DEC 03 2016

NOTE:  "FAIR" INDICATES FEW OR NO CLOUDS BELOW 12,000 FEET WITH NO
SIGNIFICANT WEATHER AND/OR OBSTRUCTIONS TO VISIBILITY.

MAZALL-032200-
EASTERN MASSACHUSETTS

CITY           SKY/WX    TMP DP  RH WIND       PRES   REMARKS
BOSTON         PTCLDY    43  25  49 NW15      29.92R
BEVERLY        PTCLDY    42  25  50 NW12      29.90R
LAWRENCE       MOCLDY    43  24  47 NW8G21    29.93R
BEDFORD        MOCLDY    41  22  46 W20G29    29.92R WCI  32
BLUE HILL        N/A     39  22  50 NW21G30   29.88R WCI  29
NORWOOD        CLEAR     43  24  47 NW16G22   29.91R
MARSHFIELD     MOCLDY    43  23  45 NW9G17    29.90R
PLYMOUTH       MOCLDY    42  24  49 NW12      29.91R
TAUNTON        PTCLDY    43  24  47 NW12G20   29.92R
NEW BEDFORD    MOCLDY    44  25  47 NW8       29.91R
$$

MAZALL-032200-
CAPE COD AND THE ISLANDS

CITY           SKY/WX    TMP DP  RH WIND       PRES   REMARKS
FALMOUTH       CLOUDY    43  23  45 MISG        N/A
HYANNIS        CLOUDY    44  24  45 NW14G21   29.88R
CHATHAM        CLOUDY    44  26  49 NW7G20    29.89R
PROVINCETOWN   CLOUDY    44  29  55 NW21G26   29.89R
NANTUCKET      CLOUDY    44  27  51 NW14      29.89R
MARTHAS VNYRD  CLOUDY    44  26  49 NW18G25   29.91R
$$

MAZALL-032200-
CENTRAL AND WESTERN MASSACHUSETTS

CITY           SKY/WX    TMP DP  RH WIND       PRES   REMARKS
WORCESTER      MOCLDY    37  23  56 NW17      29.92R WCI  27
FITCHBURG      MOCLDY    41  23  48 NW16      29.95R
ORANGE         CLOUDY    39  22  50 NW14      29.95R WCI  31
SPRINGFIELD    NOT AVBL
WESTFIELD      CLOUDY    41  23  48 NW17G26   29.98R
NORTH ADAMS    CLOUDY    37  20  50 NW15G31   29.99R WCI  28
PITTSFIELD     CLOUDY    34  23  64 NW10      29.97R WCI  26
$$

RIZALL-032200-
RHODE ISLAND

CITY           SKY/WX    TMP DP  RH WIND       PRES   REMARKS
PROVIDENCE     PTCLDY    42  23  46 NW16G24   29.94R
NEWPORT        CLEAR     42  26  53 NW15      29.93R
BLOCK ISLAND   CLOUDY    43  26  51 NW12G22   29.97R
SMITHFIELD     CLEAR     39  25  57 NW14      29.94R WCI  31
WESTERLY       CLOUDY    44  22  41 NW9G18    29.98R
$$

CTZALL-032200-
CONNECTICUT

CITY           SKY/WX    TMP DP  RH WIND       PRES   REMARKS
BRADLEY INTL   MOCLDY    41  23  48 NW15      30.00R
HARTFORD       MOCLDY    42  24  49 NW9G23    30.01R
BRIDGEPORT     CLOUDY    47  24  40 NW12G24   30.02R
DANBURY        MOCLDY    42  25  50 VRB7      30.03R
GROTON         MOCLDY    46  24  42 NW12G24   29.98R
NEW HAVEN      MOCLDY    44  26  49 NW6       30.01R
CHESTER        FAIR      41  25  52 NW13G21   29.99R
MERIDEN        CLOUDY    44  24  45 NW12G25   30.01R
WILLIMANTIC    CLOUDY    43  23  45 NW16G23   29.98R
OXFORD         MOCLDY    43  21  42 NW12G23   30.01R
$$

MEZ002-015-021-024-NHZ003-005-008-011-012-014-VTZ005-008-032200-
NORTHERN NEW ENGLAND

CITY           SKY/WX    TMP DP  RH WIND       PRES   REMARKS
PORTLAND ME    PTCLDY    39  22  50 NW17G23   29.88R WCI  30
BANGOR ME      CLOUDY    34  26  72 NW12      29.84R WCI  25
CONCORD NH     MOCLDY    40  24  53 NW14G26   29.92R
MANCHESTER NH  MOCLDY    41  23  48 NW13G21   29.92R
NASHUA NH      NOT AVBL
PORTSMOUTH NH  NOT AVBL
JAFFREY NH     CLOUDY    37  24  59 VRB6      29.93R
KEENE NH       CLOUDY    38  27  64 N13       29.96R WCI  30
BURLINGTON VT  FLURRIES  36  26  67 NW17      30.01R WCI  26
MT. WASHINGTON SNOWSHWR  10  10 100 NW67G79     N/A  VSB 0   WCI -19
$$

NYZ052-076-032200-
EASTERN NEW YORK

CITY           SKY/WX    TMP DP  RH WIND       PRES   REMARKS
ALBANY         MOCLDY    37  25  61 W18G28    30.04R WCI  27
NEW YORK CITY  PTCLDY    47  27  45 NW22G33   30.07R
$$

ANZALL-032200-
MARINE OBSERVATIONS

STATION/POSITION TIME  TEMP    WIND        PRES    VSBY  WAVE
                       AIR SEA DIR/SP/G                  HT/PER
                 (UTC) (F)     (DEG/KT/KT) (MB)    (MI)  (FT/S)
BOSTON BUOY      2050   45 51  320/ 23/ 29 1010.6R         3/ 4
BUZZARDS BAY     2000   44     320/ 29/ 32 1013.0R
NANTUCKET SOUND  NOT AVBL
MASS BAY-STELLWA 2004   45 50  330/ 19/ 25 1011.0R  1 7/8  3/ 4
ISLE OF SHOALS   2000   43     300/ 25/ 28 1010.6R
S OF BLOCK IS    2055      56                N/A           6/ 7
$$

......................KEY.........................
  SKY/WX - SKY CONDITION/PRESENT WEATHER
  TMP    - TEMPERATURE IN FAHRENHEIT
  DWPT   - DEWPOINT IN FAHRENHEIT
  RH     - RELATIVE HUMIDITY IN PERCENT
  WIND   - DIRECTION AND SPEED IN MPH
  PRES   - MEAN SEA LEVEL PRESSURE IN INCHES OF HG
  WCI    - WIND CHILL INDEX
  VSB    - VISIBILITY IN MILES
  HX     - HEAT INDEX
  TC     - TEMPERATURE IN CELSIUS
  VRB    - VARIABLE WIND DIRECTION
  N/A    - NOT AVAILABLE




USA.gov is the U.S. government's official web portal to all federal, state and local government web resources and services.